Location: Limerick
(52.6650°N, 8.6230°W)
Time: 19:48:44
(UTC+01:00)

ISS - Pass Details

Date: 24 July 2017
Orbit: 400 x 408 km, 51.6° (Epoch: 21 July)

Event Time Altitude Azimuth Distance (km) Brightness Sun altitude
Rises 03:07:41 0° 279° (W) 2,315 -0.1 -15.1°
Reaches altitude 10° 03:09:47 10° 274° (W) 1,456 -1.2 -15.0°
Maximum altitude 03:12:57 49° 198° (SSW) 526 -3.7 -14.8°
Drops below altitude 10° 03:16:07 10° 122° (ESE) 1,454 -1.1 -14.6°
Sets 03:18:14 0° 117° (ESE) 2,313 0.0 -14.5°
